Temperature
19 19 19 19 19 19 19 19 19 19 19 19 19 19 19 19 19 19 19 18 18 18 18 18 18 18 18 18 18 18 18 18 18 18 18 18 18 18 18 18 18 18 18
19 19 19 19 19 19 19 19 19 19 19 19 19 19 19 19 19 19 19 18 18 18 18 18 18 18 18 18 18 18 18 18 18 18 18 18 18 18 18 18 18 18 18
19 19 19 19 19 19 19 19 19 19 19 19 19 19 19 19 19 19 19 18 18 18 18 18 18 18 18 18 18 18 18 18 18 18 18 18 18 18 18 18 18 18 18
19 19 19 19 19 19 19 19 19 19 19 19 19 19 19 19 19 19 18 18 18 18 18 18 18 18 18 18 18 18 18 18 18 18 18 18 18 18 18 18 18 18 18
19 19 19 19 19 19 19 19 19 19 19 19 19 19 19 19 19 18 18 18 18 18 18 18 18 18 18 18 18 18 18 18 18 18 18 18 18 18 18 17 17 17 17
19 19 19 19 19 19 19 19 19 19 19 19 19 19 19 19 19 18 18 18 18 18 18 18 18 18 18 18 18 18 18 18 18 18 18 18 18 18 18 17 17 17 17
19 19 19 19 19 19 19 19 19 19 19 19 19 18 18 18 18 18 18 18 18 18 18 18 18 18 18 18 18 18 18 18 18 18 18 18 18 18 18 18 18 17 17
19 19 19 19 19 19 19 19 19 19 19 19 18 18 18 18 18 18 18 18 18 18 18 18 18 18 18 18 18 18 18 18 18 18 18 18 18 18 18 18 18 18 17
19 19 19 19 19 19 19 19 19 19 19 19 18 18 18 18 18 18 18 18 18 18 18 18 18 18 18 18 18 18 18 18 18 18 18 18 18 18 18 18 18 18 17
19 19 19 19 19 19 19 19 19 19 19 19 18 18 18 18 18 18 18 18 18 18 18 18 18 18 18 18 18 18 18 18 18 18 18 18 18 18 18 18 18 18 18
19 19 19 19 19 19 19 19 19 19 19 19 18 18 18 18 18 18 18 18 18 18 18 18 18 18 18 18 18 18 18 18 18 18 18 18 18 18 18 18 18 18 17
19 19 19 19 19 19 19 19 19 19 19 19 19 19 18 18 18 18 18 18 18 18 18 18 18 18 18 18 18 18 18 18 18 18 18 18 18 18 18 18 18 18 18
19 19 19 19 19 19 19 19 19 19 19 19 19 19 19 19 18 18 18 18 18 18 18 18 18 18 18 18 18 18 18 18 18 18 18 18 18 18 18 18 18 17 17
20 20 19 19 19 19 19 19 19 19 19 19 19 19 19 19 18 18 18 18 18 18 18 18 18 18 18 18 18 18 18 18 18 18 18 18 18 18 18 18 18 17 17
20 20 20 20 19 19 19 19 19 19 19 19 19 18 18 19 18 18 18 18 18 18 18 18 18 18 18 18 18 18 18 18 18 18 18 18 18 18 18 17 17 17 17
20 20 20 20 20 19 19 19 19 19 19 19 18 18 18 18 18 18 18 18 18 18 18 18 18 18 18 18 18 18 18 18 18 18 17 18 17 17 17 17 17 17 17
21 20 20 20 20 20 19 19 19 19 19 19 18 18 18 18 18 18 18 18 18 18 18 18 18 18 18 18 18 18 18 18 18 18 17 17 17 17 17 17 17 17 17
21 21 20 20 20 19 19 19 19 19 19 19 18 18 18 18 18 18 18 18 18 18 18 18 18 18 18 18 18 18 18 18 18 18 18 18 17 17 17 17 17 17 17
21 21 20 20 20 20 19 19 19 19 19 19 18 18 18 18 18 18 18 18 18 18 18 18 18 18 18 18 18 18 17 17 17 17 17 17 17 17 17 17 17 17 17
21 21 20 20 20 20 19 19 19 19 19 18 18 18 18 18 18 18 18 18 18 18 18 18 18 18 18 17 17 17 17 17 17 17 17 17 17 17 17 17 17 17 17
21 21 20 20 20 20 19 19 19 19 19 19 18 18 18 18 18 18 18 18 18 18 18 18 18 18 18 17 17 17 17 17 17 17 17 17 17 17 17 17 17 17 17
21 21 21 20 20 20 20 19 19 19 19 19 19 18 18 18 18 18 18 18 18 18 18 18 18 18 17 17 17 17 17 17 17 17 17 17 17 17 17 17 17 17 17
21 21 21 21 20 20 20 19 19 19 19 19 18 18 18 18 18 18 18 18 18 18 18 18 18 17 17 17 17 17 17 17 17 17 17 17 17 17 17 17 17 17 17
22 21 21 21 21 20 20 20 19 19 19 19 19 19 18 18 18 18 18 18 18 18 18 18 18 17 17 17 17 17 17 17 17 17 17 17 17 17 17 17 17 17 16
22 22 21 21 21 20 20 20 20 19 19 19 19 19 18 18 18 18 18 18 18 18 18 18 18 17 17 17 17 17 17 17 17 17 17 17 17 17 17 16 16 16 16
22 22 22 21 21 21 20 20 20 20 19 19 19 19 18 18 18 18 18 18 18 18 18 18 17 17 17 17 17 17 17 17 17 17 17 17 17 17 16 16 16 16 16
Wind_Speed
3 4 8 9 10 12 13 13 13 13 13 13 13 13 13 13 13 13 13 12 12 13 12 12 12 11 12 12 12 11 11 11 11 11 11 10 10 10 10 10 10 10 12
5 6 10 10 11 12 13 13 13 13 13 12 12 12 13 12 12 12 12 12 12 12 12 12 11 11 11 11 11 11 10 10 10 10 9 9 9 9 9 10 10 10 11
6 7 10 11 11 12 12 12 12 12 12 11 11 11 12 12 12 11 11 11 11 12 11 11 10 10 10 10 10 10 9 9 9 9 8 7 7 8 8 9 10 11 11
7 7 9 10 11 11 11 11 11 11 11 11 11 11 11 11 11 11 11 11 11 11 11 10 10 9 9 9 9 8 8 8 8 8 6 6 5 7 8 8 10 10 10
6 7 8 10 10 10 10 10 10 10 10 10 10 10 10 10 10 10 9 9 10 10 10 10 9 9 9 9 8 7 7 7 7 6 6 5 5 6 7 8 9 9 9
5 6 8 10 9 9 9 8 9 9 9 9 10 10 10 9 9 9 8 9 9 9 9 9 9 9 9 8 7 7 6 6 6 5 5 5 5 7 7 8 9 9 9
5 5 7 9 9 8 7 8 8 8 8 8 8 9 9 8 8 8 7 8 8 8 8 8 8 8 8 7 6 5 5 5 5 5 5 5 5 6 7 7 8 8 8
5 4 6 8 8 8 7 7 7 7 7 7 7 7 7 7 7 7 6 7 7 7 7 7 7 7 7 6 6 5 4 4 5 4 4 4 5 6 7 8 8 8 7
4 3 3 4 6 6 6 6 6 6 7 6 6 6 7 7 6 6 5 5 6 6 6 6 6 6 6 6 5 4 4 4 5 4 4 4 5 6 7 7 7 7 7
3 3 2 3 3 3 4 5 6 6 6 5 5 5 6 6 6 6 5 4 5 5 5 5 5 6 6 5 5 4 4 4 4 4 3 4 6 6 7 8 7 6 6
3 2 2 2 2 2 3 4 4 5 5 5 4 5 5 4 4 4 4 4 4 4 4 4 5 5 5 5 4 4 4 4 4 3 3 5 6 6 6 7 7 7 7
4 3 2 2 1 1 2 3 3 4 4 4 4 4 5 4 3 3 3 4 4 4 4 4 5 5 4 4 4 4 4 4 3 3 3 5 5 6 6 6 7 7 7
5 4 3 3 2 2 1 2 2 3 3 4 4 5 5 3 2 2 2 2 3 3 3 4 4 3 3 3 3 3 3 3 2 2 3 4 4 5 6 6 7 7 6
5 5 4 3 2 2 2 1 2 2 3 3 4 4 4 2 2 2 1 1 1 1 2 2 2 2 3 3 3 3 3 2 2 2 2 3 4 5 5 6 7 7 6
6 5 4 4 3 2 2 1 2 2 3 3 3 3 3 2 2 1 1 1 1 1 1 1 1 2 2 2 2 3 2 2 2 1 2 3 3 4 5 5 7 7 6
7 6 5 5 4 3 2 2 1 2 3 3 3 3 3 3 2 2 1 1 1 1 1 2 1 1 1 1 1 2 2 2 2 2 1 2 2 3 4 5 5 6 6
7 6 6 6 5 4 3 3 2 2 3 2 2 3 3 3 3 2 1 1 1 1 2 2 2 2 2 2 1 1 1 1 2 2 2 2 2 3 4 4 5 5 5
7 7 7 6 6 5 4 3 2 2 2 2 2 3 3 3 4 3 2 1 1 2 2 2 2 2 2 1 1 1 1 1 1 1 2 2 2 2 3 4 4 5 4
9 8 7 6 6 5 4 3 2 2 2 2 2 3 3 3 4 3 2 1 2 2 2 2 2 2 2 1 1 1 1 1 0 1 1 2 2 2 2 3 4 5 5
8 7 7 6 6 5 4 3 2 2 1 1 2 3 4 4 4 4 2 2 2 2 2 2 2 2 2 1 1 2 2 1 1 0 1 1 1 2 2 2 3 4 4
7 7 7 6 6 5 3 3 3 2 1 1 1 2 4 4 4 3 2 2 2 2 2 2 2 2 2 2 2 2 2 2 1 1 0 0 0 1 2 2 2 2 2
8 8 8 7 7 6 4 3 3 3 2 1 1 2 3 4 4 3 3 2 2 2 2 2 2 2 1 2 2 2 1 2 2 1 1 0 1 1 1 2 2 2 3
9 10 9 8 7 7 6 4 3 3 2 1 1 1 1 3 4 4 4 3 3 3 2 1 2 3 2 1 1 2 2 1 1 2 1 1 1 1 1 2 2 3 3
11 10 9 8 7 7 7 7 7 5 4 3 2 2 1 2 3 4 4 3 3 2 2 2 2 2 3 2 0 1 1 2 2 1 2 1 1 1 2 2 2 3 3
10 10 9 8 8 7 7 8 7 5 4 3 2 2 2 1 2 3 4 3 2 2 2 2 2 2 2 2 1 1 1 1 1 1 1 2 2 2 2 2 2 2 3
8 8 8 9 8 8 8 8 8 8 6 5 4 3 2 1 1 2 3 3 2 2 2 2 2 2 2 2 1 1 1 1 1 1 2 2 2 2 2 2 2 2 3
Wind_Direction
157 164 145 132 124 123 125 127 127 124 124 124 126 126 127 126 124 128 131 131 132 131 129 128 129 128 128 128 126 124 122 122 121 122 123 121 122 123 123 122 120 121 124
148 154 143 132 127 123 123 122 122 122 123 123 124 127 128 127 125 126 129 131 132 130 130 131 130 128 128 128 126 124 123 123 124 124 124 125 125 126 125 126 126 129 129
130 140 141 134 130 127 125 124 122 121 121 121 123 126 128 128 127 127 129 129 130 131 132 131 129 129 128 127 125 125 124 122 123 122 116 113 125 130 131 132 131 133 136
130 135 140 137 134 132 128 126 124 123 124 125 125 126 129 130 130 131 132 134 135 136 136 133 133 132 132 129 127 126 124 123 123 118 111 115 128 135 135 137 138 139 140
119 132 144 140 137 135 132 130 128 127 128 129 129 128 128 128 129 131 134 138 141 141 139 138 137 135 133 133 132 131 131 130 125 119 120 123 132 143 145 144 145 144 144
115 133 148 143 142 140 137 136 132 134 134 132 133 132 129 129 132 132 135 139 144 146 143 141 139 137 134 134 133 133 134 129 121 124 127 134 146 152 152 153 151 150 151
128 139 149 145 145 144 142 143 143 142 140 137 134 133 135 136 134 133 139 141 143 144 142 142 141 138 135 134 133 134 138 132 129 134 140 147 158 162 163 156 151 153 153
129 135 144 145 145 146 148 149 147 145 142 141 138 138 140 138 137 137 142 142 143 144 144 143 143 140 138 138 139 145 150 149 144 146 152 162 172 168 165 158 155 157 158
111 110 121 139 143 144 148 148 147 148 148 147 145 143 141 138 138 139 139 137 136 139 145 148 149 146 142 139 138 145 146 144 141 153 161 167 172 167 164 160 158 159 159
101 98 95 103 115 124 137 138 139 145 146 148 148 151 152 143 134 134 131 131 131 134 138 146 151 147 143 135 131 140 139 130 136 148 156 171 170 168 164 160 161 162 163
135 110 104 98 99 109 126 131 129 132 133 131 129 132 122 109 110 124 134 132 129 129 135 129 130 132 128 124 126 122 123 127 135 150 166 171 173 173 169 165 162 163 168
170 167 154 145 121 115 125 101 92 94 97 94 91 96 99 97 106 119 126 122 115 106 109 108 100 103 102 104 108 105 113 126 136 155 168 172 177 173 169 171 168 170 174
177 177 175 171 154 126 103 93 90 96 99 94 97 105 102 89 80 69 58 66 78 85 73 77 75 77 88 100 108 111 121 126 138 157 168 175 177 179 178 177 176 180 181
174 188 185 171 159 151 139 128 118 114 113 107 110 113 109 95 76 69 65 54 58 66 73 77 84 76 82 98 120 129 131 138 145 155 174 172 175 180 181 184 187 187 193
181 189 187 173 168 161 145 155 128 123 122 123 121 123 130 129 114 108 94 78 73 83 96 94 84 81 87 91 107 124 130 137 135 150 167 166 176 180 183 187 193 197 204
185 187 182 177 170 158 160 152 133 140 135 134 145 163 165 166 148 128 102 84 56 76 118 121 119 104 96 100 102 123 146 153 160 157 147 158 180 193 194 193 196 202 211
186 180 179 180 165 165 172 173 153 155 151 147 170 180 180 174 163 147 116 88 58 76 98 103 92 90 102 108 103 118 153 169 165 163 162 173 199 212 208 209 210 211 219
176 175 184 182 166 171 167 158 137 144 152 159 167 165 170 168 160 146 129 122 102 97 103 108 98 88 83 86 79 51 82 107 130 173 172 190 204 219 222 224 228 229 232
179 176 179 174 165 168 158 140 122 122 130 152 146 147 158 152 147 139 132 131 117 102 98 115 106 116 111 90 95 76 59 62 70 138 158 190 207 214 228 243 245 242 244
179 178 177 172 165 155 138 118 103 94 85 109 137 154 153 145 140 132 123 115 114 106 90 96 107 98 107 109 96 66 47 44 70 96 186 186 203 211 223 237 249 252 250
173 176 178 176 170 154 144 149 148 162 150 119 138 151 151 146 139 132 127 115 113 119 119 116 113 98 75 82 86 55 31 38 58 40 28 116 265 234 220 230 240 250 259
179 180 179 183 177 172 170 162 153 143 147 153 123 118 141 144 145 147 137 131 125 118 99 96 107 117 97 88 112 103 29 359 7 12 20 139 260 250 231 240 247 254 263
185 187 187 185 179 176 163 138 120 94 82 93 116 134 145 152 154 151 147 144 135 136 145 154 149 143 145 101 101 139 146 212 312 339 349 345 305 278 271 259 261 270 267
194 189 182 180 178 175 164 161 161 165 172 187 177 168 143 146 152 151 148 144 141 143 154 176 155 154 149 164 115 75 141 150 147 321 326 321 310 284 285 282 279 270 267
191 187 183 179 181 177 175 175 171 170 171 155 148 146 145 135 143 149 151 151 151 149 154 139 123 137 145 162 160 141 106 79 106 153 278 315 325 302 285 270 276 274 265
184 185 181 181 187 183 180 181 179 175 168 159 163 171 175 165 154 156 156 159 159 158 164 163 149 141 142 145 147 146 152 151 169 170 219 265 292 302 299 274 264 275 267
Height
1508 1509 1510 1511 1510 1510 1512 1514 1516 1518 1519 1520 1522 1523 1524 1525 1526 1527 1529 1530 1531 1533 1534 1536 1538 1540 1541 1543 1544 1546 1547 1549 1550 1551 1552 1553 1555 1556 1557 1557 1558 1559 1560
1509 1511 1512 1513 1513 1514 1515 1516 1518 1520 1521 1522 1523 1524 1526 1527 1528 1529 1530 1532 1533 1535 1536 1538 1540 1541 1543 1544 1545 1547 1548 1550 1551 1552 1553 1554 1555 1557 1557 1558 1559 1560 1561
1511 1512 1514 1515 1516 1517 1518 1519 1520 1522 1523 1524 1525 1526 1527 1529 1530 1531 1532 1534 1535 1536 1538 1539 1541 1543 1544 1545 1547 1548 1550 1551 1552 1553 1554 1555 1556 1557 1558 1559 1560 1561 1562
1513 1514 1515 1517 1518 1519 1520 1521 1523 1524 1525 1526 1527 1528 1529 1530 1532 1533 1534 1535 1537 1538 1539 1541 1542 1544 1545 1547 1548 1549 1551 1552 1553 1554 1555 1556 1557 1558 1559 1560 1561 1562 1563
1514 1516 1518 1519 1520 1521 1522 1523 1524 1525 1527 1528 1529 1530 1531 1532 1533 1534 1536 1537 1538 1539 1541 1542 1544 1545 1547 1548 1549 1550 1552 1553 1554 1555 1556 1556 1557 1559 1560 1560 1561 1563 1564
1516 1518 1519 1521 1522 1523 1524 1525 1526 1527 1528 1529 1530 1531 1532 1533 1535 1536 1537 1538 1539 1540 1542 1543 1545 1546 1548 1549 1551 1552 1553 1554 1555 1555 1556 1557 1558 1559 1560 1561 1562 1563 1564
1518 1520 1521 1522 1524 1525 1525 1526 1527 1528 1529 1531 1532 1533 1534 1535 1536 1537 1538 1539 1540 1541 1543 1544 1546 1548 1549 1550 1552 1553 1554 1555 1556 1556 1557 1558 1559 1560 1560 1561 1562 1563 1564
1521 1522 1523 1524 1525 1526 1527 1527 1528 1529 1530 1532 1533 1534 1535 1536 1537 1538 1539 1540 1541 1543 1544 1545 1547 1549 1550 1551 1553 1553 1554 1555 1556 1557 1558 1559 1559 1560 1561 1561 1562 1563 1565
1523 1524 1525 1526 1527 1527 1528 1528 1529 1530 1531 1532 1534 1535 1536 1537 1538 1539 1540 1541 1542 1544 1545 1547 1548 1550 1551 1552 1553 1554 1555 1556 1557 1558 1559 1559 1560 1561 1561 1562 1563 1564 1565
1525 1526 1527 1528 1528 1529 1529 1530 1530 1530 1531 1533 1534 1536 1537 1538 1540 1541 1541 1542 1544 1545 1546 1548 1549 1551 1552 1553 1554 1555 1556 1557 1558 1559 1559 1560 1560 1561 1562 1562 1563 1564 1565
1527 1528 1529 1530 1530 1531 1531 1532 1532 1532 1533 1534 1536 1537 1539 1540 1541 1542 1543 1544 1545 1546 1547 1549 1550 1551 1553 1554 1555 1556 1557 1558 1558 1559 1560 1560 1561 1561 1562 1563 1563 1564 1565
1528 1529 1530 1531 1532 1533 1533 1533 1534 1534 1535 1536 1537 1539 1540 1541 1542 1543 1544 1545 1546 1547 1548 1550 1551 1552 1554 1555 1556 1557 1557 1558 1559 1559 1560 1560 1561 1561 1562 1562 1563 1564 1565
1529 1531 1532 1533 1534 1534 1535 1535 1535 1536 1537 1538 1539 1540 1541 1542 1543 1545 1545 1546 1548 1549 1550 1551 1552 1553 1554 1555 1556 1557 1558 1559 1559 1560 1560 1561 1561 1561 1562 1562 1563 1564 1564
1530 1531 1533 1534 1535 1536 1536 1537 1537 1538 1538 1539 1540 1541 1542 1544 1545 1546 1547 1548 1549 1550 1551 1552 1553 1554 1555 1556 1557 1558 1558 1559 1559 1560 1560 1561 1561 1561 1562 1562 1563 1563 1564
1531 1533 1534 1535 1536 1537 1538 1538 1539 1540 1540 1541 1542 1543 1544 1545 1546 1547 1548 1549 1549 1551 1552 1553 1554 1555 1556 1556 1557 1558 1558 1559 1559 1560 1560 1561 1561 1561 1562 1562 1562 1563 1563
1531 1533 1535 1536 1537 1538 1539 1540 1540 1541 1542 1542 1543 1544 1545 1546 1547 1548 1549 1549 1550 1551 1552 1553 1554 1555 1556 1557 1557 1558 1558 1559 1559 1560 1560 1561 1561 1561 1561 1561 1562 1562 1562
1531 1533 1535 1537 1538 1539 1540 1540 1541 1542 1543 1544 1544 1545 1546 1547 1548 1549 1549 1550 1551 1552 1553 1554 1554 1555 1556 1557 1557 1558 1558 1559 1559 1560 1560 1560 1560 1560 1561 1561 1561 1561 1561
1532 1533 1535 1537 1538 1539 1540 1541 1542 1543 1543 1544 1545 1546 1547 1548 1548 1549 1550 1551 1551 1552 1553 1554 1555 1555 1556 1556 1557 1557 1558 1559 1559 1559 1560 1560 1560 1560 1560 1560 1560 1560 1560
1531 1533 1534 1536 1538 1539 1540 1541 1542 1543 1544 1545 1546 1547 1547 1548 1549 1550 1550 1551 1552 1552 1553 1554 1555 1555 1556 1556 1557 1557 1558 1558 1559 1559 1559 1559 1560 1560 1560 1560 1560 1560 1559
1530 1532 1534 1536 1537 1539 1540 1541 1542 1543 1544 1545 1546 1547 1548 1549 1549 1550 1550 1551 1551 1552 1552 1553 1554 1555 1555 1556 1556 1557 1557 1557 1558 1558 1558 1559 1559 1559 1559 1559 1559 1559 1559
1530 1531 1533 1535 1536 1538 1539 1540 1542 1543 1544 1545 1546 1547 1548 1549 1549 1550 1550 1551 1551 1551 1552 1553 1554 1554 1555 1555 1556 1556 1557 1557 1557 1557 1558 1558 1558 1559 1559 1559 1558 1558 1558
1527 1530 1532 1534 1535 1537 1539 1540 1542 1543 1544 1545 1546 1547 1548 1549 1549 1550 1550 1550 1551 1551 1552 1552 1553 1553 1554 1554 1555 1555 1556 1557 1556 1556 1557 1557 1557 1558 1558 1558 1558 1557 1557
1525 1528 1530 1532 1534 1536 1538 1539 1541 1542 1543 1544 1545 1546 1548 1548 1549 1549 1550 1550 1550 1551 1551 1551 1552 1553 1553 1554 1554 1555 1555 1555 1556 1556 1556 1556 1556 1556 1556 1556 1556 1556 1555
1523 1526 1528 1531 1533 1535 1536 1538 1539 1540 1542 1543 1544 1546 1547 1548 1549 1549 1549 1550 1550 1550 1551 1551 1552 1552 1552 1553 1553 1554 1555 1554 1555 1555 1556 1556 1555 1555 1555 1555 1555 1554 1554
1520 1523 1526 1529 1531 1533 1534 1536 1538 1539 1541 1543 1544 1545 1546 1547 1548 1548 1549 1549 1550 1550 1550 1551 1551 1551 1552 1552 1553 1553 1554 1554 1554 1554 1554 1554 1555 1554 1554 1554 1553 1553 1552
1517 1520 1523 1526 1528 1531 1533 1535 1536 1538 1540 1541 1543 1544 1545 1546 1547 1548 1548 1549 1549 1549 1549 1550 1550 1551 1551 1551 1552 1552 1552 1553 1553 1553 1553 1553 1553 1553 1552 1552 1552 1551 1551